Waarnemingen

Advertentie
Mijn weer
Auch, Frankrijk (7622): temperatuur & dauwpunt: 20.09.2018 05:00:00 - 26.09.2018 05:00:00 (CEST)Auch, Frankrijk (7622): temperatuur 5cm: 20.09.2018 05:00:00 - 26.09.2018 05:00:00 (CEST)Auch, Frankrijk (7622): temperatuur -20cm & temperatuur -100cm: 20.09.2018 05:00:00 - 26.09.2018 05:00:00 (CEST)Auch, Frankrijk (7622): windsnelheid & windstoten: 20.09.2018 05:00:00 - 26.09.2018 05:00:00 (CEST)Auch, Frankrijk (7622): windrichting: 20.09.2018 05:00:00 - 26.09.2018 05:00:00 (CEST)Auch, Frankrijk (7622): luchtdruk: 20.09.2018 05:00:00 - 26.09.2018 05:00:00 (CEST)Auch, Frankrijk (7622): zicht: 20.09.2018 05:00:00 - 26.09.2018 05:00:00 (CEST)Auch, Frankrijk (7622): Zonneschijnduur: 20.09.2018 05:00:00 - 26.09.2018 05:00:00 (CEST)Auch, Frankrijk (7622): neerslag: 20.09.2018 05:00:00 - 26.09.2018 05:00:00 (CEST)
Datum & Tijd tt [°C] td [°C] tt 5cm [°C] tt -20cm [°C] tt -100cm [°C] ff [km/u] ff [kn] fx [km/u] fx [kn] dd ppp [hPa] vv [km] sd [min] rr [mm]
26.09.2018 05:00:00 7,3 6,2 4,7 20,2 21,4 0 0 4 2 N 1028,6 20 0 0,0
26.09.2018 04:00:00 7,7 6,2 5,0 20,4 21,4 0 0 3 2 N 1028,5 20 0 0,0
26.09.2018 03:00:00 8,1 6,2 5,6 20,6 21,4 0 0 3 2 N 1028,6 20 0 0,0
26.09.2018 02:00:00 8,5 6,5 5,7 20,8 21,4 0 0 2 1 N 1028,8 20 0 0,0
26.09.2018 01:00:00 8,7 6,3 5,5 21,0 21,5 3 1 4 2 Z 1028,6 20 0 0,0
26.09.2018 00:00:00 9,1 6,2 5,9 21,3 21,5 2 1 3 2 Z 1028,7 20 0 0,0
25.09.2018 23:00:00 10,1 6,2 6,5 21,4 21,5 2 1 3 2 ZZW 1028,7 20 0 0,0
25.09.2018 22:00:00 11,3 6,4 7,1 21,5 21,5 2 1 4 2 ZZW 1028,1 20 0 0,0
25.09.2018 21:00:00 12,8 6,6 8,0 21,5 21,5 4 2 5 3 ZZW 1027,7 20 0 0,0
25.09.2018 20:00:00 16,8 6,6 10,7 21,5 21,5 0 0 5 3 N 1027,0 20 25 0,0
25.09.2018 19:00:00 21,6 2,8 24,7 21,3 21,5 3 2 13 7 O 1026,5 20 60 0,0
25.09.2018 18:00:00 21,7 2,9 26,7 21,0 21,5 6 3 17 9 NNO 1026,3 20 60 0,0
25.09.2018 17:00:00 22,6 3,2 27,0 20,6 21,5 3 1 15 8 O 1026,6 20 60 0,0
25.09.2018 16:00:00 21,1 3,3 27,0 20,3 21,5 5 3 17 9 N 1027,0 20 60 0,0
25.09.2018 15:00:00 20,3 3,5 25,4 20,0 21,5 6 3 16 9 NNO 1027,6 18 60 0,0
25.09.2018 14:00:00 19,1 3,7 24,4 19,8 21,5 4 2 22 12 NNW 1028,1 20 60 0,0
25.09.2018 13:00:00 18,3 4,8 24,2 19,6 21,5 11 6 21 11 N 1028,5 20 60 0,0
25.09.2018 12:00:00 16,5 6,0 22,5 19,6 21,5 6 3 12 6 NNW 1028,6 20 60 0,0
25.09.2018 11:00:00 14,8 6,6 18,7 19,8 21,5 0 0 6 3 N 1028,8 20 60 0,0
25.09.2018 10:00:00 10,7 7,8 11,1 20,0 21,5 2 1 10 5 Z 1028,9 20 60 0,0
25.09.2018 09:00:00 7,1 7,0 1,4 20,3 21,5 6 3 9 5 Z 1028,9 20 41 0,0
25.09.2018 08:00:00 4,7 4,4 1,0 20,6 21,5 0 0 3 1 N 1028,8 20 0 0,0
25.09.2018 07:00:00 5,2 4,9 1,4 20,8 21,5 0 0 2 1 N 1028,9 8 0 0,0
25.09.2018 06:00:00 5,4 5,0 1,6 21,1 21,5 0 0 2 1 N 1028,8 20 0 0,0
25.09.2018 05:00:00 6,0 5,4 2,3 21,4 21,5 0 0 3 2 N 1029,0 20 0 0,0
25.09.2018 04:00:00 6,3 5,7 3,2 21,6 21,5 2 1 9 5 ZZW 1029,4 20 0 0,0
25.09.2018 03:00:00 6,9 6,2 3,2 21,9 21,5 0 0 4 2 N 1029,7 20 0 0,0
25.09.2018 02:00:00 7,6 6,7 4,2 22,2 21,5 2 1 6 4 ZZW 1029,6 20 0 0,0
25.09.2018 01:00:00 8,1 6,7 4,5 22,5 21,5 4 2 7 4 ZZW 1029,9 20 0 0,0
25.09.2018 00:00:00 8,9 7,0 5,0 22,7 21,5 0 0 6 3 N 1029,9 20 0 0,0
24.09.2018 23:00:00 9,8 7,2 6,1 23,0 21,5 4 2 6 3 Z 1029,9 20 0 0,0
24.09.2018 22:00:00 11,0 7,3 7,1 23,2 21,5 3 2 5 3 Z 1029,9 20 0 0,0
24.09.2018 21:00:00 13,3 6,6 8,5 23,3 21,5 3 2 6 4 ZZW 1029,4 20 0 0,0
24.09.2018 20:00:00 16,6 6,4 13,2 23,4 21,5 5 3 18 10 NW 1028,8 20 26 0,0
24.09.2018 19:00:00 18,6 5,4 20,8 23,3 21,5 13 7 27 14 NNW 1028,5 20 60 0,0
24.09.2018 18:00:00 19,6 7,0 24,1 23,2 21,5 13 7 27 15 NNW 1028,1 20 60 0,0
24.09.2018 17:00:00 19,9 7,6 25,3 23,0 21,5 17 9 31 17 NNW 1028,3 20 60 0,0
24.09.2018 16:00:00 19,6 8,3 22,9 22,9 21,5 15 8 30 16 NW 1028,7 20 53 0,0
24.09.2018 15:00:00 18,7 8,9 21,5 22,7 21,5 14 8 29 16 NW 1029,2 20 48 0,0
24.09.2018 14:00:00 17,9 9,8 20,4 22,7 21,5 15 8 30 16 NW 1029,6 20 45 0,0
24.09.2018 13:00:00 16,6 10,4 19,7 22,7 21,5 14 7 31 17 NNW 1029,9 20 41 0,0
24.09.2018 12:00:00 16,3 11,2 18,0 22,7 21,5 19 10 38 20 NNW 1029,7 20 53 0,0
24.09.2018 11:00:00 15,3 11,1 17,8 22,9 21,5 17 9 32 18 NNW 1029,5 20 55 0,0
24.09.2018 10:00:00 14,1 11,1 13,5 23,1 21,5 18 10 31 17 NNW 1029,2 20 38 0,0
24.09.2018 09:00:00 13,4 11,5 12,9 23,2 21,5 19 10 28 15 N 1028,6 20 0 0,0
24.09.2018 08:00:00 15,1 14,0 14,7 23,4 21,5 13 7 29 16 NW 1027,2 20 0 0,0
24.09.2018 07:00:00 16,2 14,9 15,7 23,5 21,5 16 9 26 14 NNW 1026,5 20 0 0,0
24.09.2018 06:00:00 16,7 15,7 16,2 23,6 21,5 17 9 33 18 N 1025,8 4,9 0 0,2
24.09.2018 05:00:00 18,3 17,0 17,7 23,8 21,5 11 6 20 11 NW 1025,2 20 0 0,0
24.09.2018 04:00:00 18,5 17,3 17,9 23,9 21,5 11 6 24 13 NNW 1025,2 20 0 0,6
24.09.2018 03:00:00 19,6 18,8 18,9 24,0 21,5 9 5 21 12 W 1024,9 8 0 0,6
24.09.2018 02:00:00 19,9 18,2 18,8 24,1 21,5 9 5 18 10 WZW 1025,0 20 0 0,0
24.09.2018 01:00:00 19,7 18,2 18,6 24,2 21,5 10 6 29 15 W 1025,3 20 0 0,0
24.09.2018 00:00:00 21,1 17,3 20,0 24,4 21,5 10 5 25 13 W 1025,3 20 0 0,0
23.09.2018 23:00:00 21,2 16,8 20,2 24,5 21,5 10 5 28 15 W 1025,2 20 0 0,0
23.09.2018 22:00:00 22,2 16,9 21,3 24,5 21,5 14 7 35 19 W 1024,9 20 0 0,0
23.09.2018 21:00:00 23,8 16,8 23,1 24,5 21,5 18 10 32 17 WNW 1024,2 20 0 0,0
23.09.2018 20:00:00 26,1 16,6 25,0 24,4 21,5 15 8 27 15 WNW 1022,8 20 26 0,0
23.09.2018 19:00:00 28,1 16,7 29,4 24,2 21,5 12 6 27 15 W 1022,1 20 60 0,0
23.09.2018 18:00:00 28,6 16,8 31,5 23,9 21,5 17 9 31 17 WNW 1021,7 20 60 0,0
23.09.2018 17:00:00 29,0 16,2 32,8 23,5 21,5 14 8 28 15 W 1021,4 20 60 0,0
23.09.2018 16:00:00 28,9 16,1 33,8 23,1 21,5 14 8 26 14 WNW 1021,5 20 60 0,0
23.09.2018 15:00:00 28,5 16,4 33,5 22,8 21,5 9 5 27 14 W 1021,8 20 60 0,0
23.09.2018 14:00:00 28,2 16,8 32,3 22,5 21,5 6 4 20 11 W 1022,3 20 60 0,0
23.09.2018 13:00:00 26,6 15,9 31,9 22,3 21,5 6 3 13 7 W 1023,0 20 60 0,0
23.09.2018 12:00:00 25,2 16,3 30,6 22,2 21,5 3 2 11 6 WNW 1023,6 20 60 0,0
23.09.2018 11:00:00 23,0 16,5 28,0 22,3 21,5 4 2 12 6 NNW 1024,1 20 60 0,0
23.09.2018 10:00:00 21,4 16,4 20,9 22,4 21,5 0 0 8 5 N 1024,1 20 60 0,0
23.09.2018 09:00:00 16,6 15,3 13,8 22,6 21,5 6 4 10 5 Z 1024,0 20 43 0,0
23.09.2018 08:00:00 14,6 14,0 11,9 22,8 21,5 8 5 10 5 Z 1023,8 20 0 0,0
23.09.2018 07:00:00 14,5 13,5 11,8 23,0 21,5 2 1 6 4 ZZW 1023,9 11 0 0,0
23.09.2018 06:00:00 15,8 14,5 13,2 23,2 21,5 5 3 9 5 Z 1023,8 20 0 0,0
23.09.2018 05:00:00 16,0 14,5 14,3 23,3 21,5 6 3 11 6 Z 1023,9 20 0 0,0
23.09.2018 04:00:00 16,4 14,6 15,0 23,5 21,5 8 4 11 6 Z 1024,3 20 0 0,0
23.09.2018 03:00:00 16,6 14,8 14,9 23,7 21,5 9 5 12 7 Z 1024,8 20 0 0,0
23.09.2018 02:00:00 17,2 15,0 15,5 23,9 21,5 11 6 14 7 Z 1024,9 20 0 0,0
23.09.2018 01:00:00 17,2 14,8 15,0 24,1 21,5 8 5 10 6 Z 1024,6 20 0 0,0
23.09.2018 00:00:00 17,3 14,9 14,4 24,2 21,5 5 3 8 4 ZZW 1024,4 20 0 0,0
22.09.2018 23:00:00 17,5 14,9 14,6 24,4 21,5 4 2 6 3 ZZW 1024,2 20 0 0,0
22.09.2018 22:00:00 17,8 14,7 15,2 24,5 21,5 5 3 6 3 Z 1023,8 20 0 0,0
22.09.2018 21:00:00 20,4 15,0 16,1 24,5 21,5 3 1 4 2 Z 1023,4 20 0 0,0
22.09.2018 20:00:00 25,0 14,5 20,2 24,4 21,5 2 1 13 7 WNW 1022,7 20 26 0,0
22.09.2018 19:00:00 26,9 14,0 26,8 24,2 21,5 8 5 19 10 WNW 1022,4 20 52 0,0
22.09.2018 18:00:00 28,1 14,3 31,5 23,8 21,5 9 5 25 13 WNW 1022,2 20 60 0,0
22.09.2018 17:00:00 28,0 14,3 32,1 23,5 21,4 10 5 20 11 WNW 1022,2 20 60 0,0
22.09.2018 16:00:00 28,0 14,3 32,4 23,2 21,5 4 2 17 9 WNW 1022,4 20 60 0,0
22.09.2018 15:00:00 26,2 14,6 30,8 22,8 21,4 7 4 18 10 ZZO 1022,9 17 60 0,0
22.09.2018 14:00:00 25,0 13,9 29,7 22,6 21,5 7 4 14 8 N 1023,5 20 60 0,0
22.09.2018 13:00:00 23,5 14,5 29,1 22,4 21,5 4 2 18 10 NO 1023,7 20 60 0,0
22.09.2018 12:00:00 22,6 14,7 27,3 22,4 21,5 3 2 13 7 NNW 1024,2 20 60 0,0
22.09.2018 11:00:00 20,7 14,3 24,3 22,5 21,5 5 3 13 7 ZZW 1024,3 20 60 0,0
22.09.2018 10:00:00 19,0 14,7 20,2 22,6 21,4 5 3 9 5 O 1024,2 20 56 0,0
22.09.2018 09:00:00 16,0 14,9 11,5 22,8 21,5 4 2 6 3 N 1024,1 20 44 0,0
22.09.2018 08:00:00 13,5 12,9 10,8 23,0 21,5 0 0 4 2 N 1024,2 20 0 0,0
22.09.2018 07:00:00 14,5 13,5 11,2 23,1 21,5 0 0 3 2 N 1024,0 20 0 0,0
22.09.2018 06:00:00 15,9 14,1 13,5 23,3 21,5 0 0 8 4 N 1024,1 20 0 0,0
22.09.2018 05:00:00 16,6 14,8 15,6 23,4 21,4 3 2 6 3 NNW 1024,3 20 0 0,0
22.09.2018 04:00:00 16,7 15,1 16,0 23,6 21,5 4 2 9 5 N 1024,3 20 0 0,0
22.09.2018 03:00:00 17,1 15,4 14,6 23,7 21,5 6 3 10 5 NNO 1024,7 20 0 0,0
22.09.2018 02:00:00 17,3 15,5 15,9 23,8 21,5 2 1 7 4 NNO 1024,8 20 0 0,0
22.09.2018 01:00:00 17,7 15,7 17,5 23,9 21,4 6 3 11 6 NNO 1025,1 20 0 0,0
22.09.2018 00:00:00 17,8 16,0 17,5 24,0 21,4 0 0 8 4 N 1024,8 20 0 0,0
21.09.2018 23:00:00 17,7 15,9 17,7 24,1 21,4 5 3 16 9 NNO 1024,7 20 0 0,0
21.09.2018 22:00:00 17,9 16,4 17,7 24,2 21,5 9 5 18 10 NNW 1024,2 17 0 0,0
21.09.2018 21:00:00 18,4 16,7 18,5 24,2 21,4 9 5 26 14 NNW 1023,5 20 0 0,0
21.09.2018 20:00:00 19,7 16,0 19,7 24,2 21,4 13 7 32 17 N 1022,8 20 0 0,0
21.09.2018 19:00:00 21,3 16,7 21,8 24,1 21,5 23 12 39 21 NNW 1021,8 20 0 0,0
21.09.2018 18:00:00 25,6 14,7 27,1 23,9 21,4 16 9 32 17 WNW 1020,5 20 40 0,0
21.09.2018 17:00:00 26,3 14,7 28,3 23,6 21,4 17 9 31 17 WNW 1020,1 20 49 0,0
21.09.2018 16:00:00 26,7 15,4 29,4 23,3 21,4 13 7 29 16 WNW 1019,5 20 43 0,0
21.09.2018 15:00:00 26,0 14,8 29,9 23,1 21,4 16 8 31 17 W 1019,7 20 57 0,0
21.09.2018 14:00:00 25,3 15,3 28,1 22,9 21,4 12 6 24 13 WZW 1020,2 20 28 0,0
21.09.2018 13:00:00 25,3 15,6 27,7 22,9 21,5 11 6 25 13 WNW 1020,6 20 44 0,0
21.09.2018 12:00:00 23,5 16,3 25,6 22,8 21,4 9 5 19 10 W 1020,6 20 25 0,0
21.09.2018 11:00:00 22,1 16,8 23,3 22,8 21,4 11 6 18 10 ZW 1020,4 20 9 0,0
21.09.2018 10:00:00 21,4 17,6 20,1 22,9 21,4 6 3 12 7 Z 1019,7 20 30 0,0
21.09.2018 09:00:00 18,9 17,2 16,5 23,0 21,4 6 3 10 5 ZZW 1019,6 16 20 0,0
21.09.2018 08:00:00 17,6 16,3 16,7 23,2 21,4 9 5 11 6 Z 1018,5 15 0 0,0
21.09.2018 07:00:00 18,3 16,6 17,6 23,3 21,4 3 2 9 5 Z 1018,2 19 0 0,0
21.09.2018 06:00:00 18,1 16,6 15,1 23,5 21,4 4 2 14 7 WZW 1017,9 18 0 0,0
21.09.2018 05:00:00 18,0 16,3 16,3 23,7 21,4 5 3 12 7 WZW 1017,2 18 0 0,0
21.09.2018 04:00:00 18,9 16,7 17,3 23,9 21,4 9 5 21 11 WNW 1017,4 19 0 0,0
21.09.2018 03:00:00 19,6 17,0 17,2 24,1 21,4 8 4 23 12 WZW 1016,7 20 0 0,0
21.09.2018 02:00:00 19,0 15,9 16,4 24,3 21,4 7 4 16 9 ZW 1016,8 20 0 0,0
21.09.2018 01:00:00 18,0 15,3 13,8 24,4 21,4 9 5 11 6 ZZW 1016,1 20 0 0,0
21.09.2018 00:00:00 17,2 14,3 13,8 24,6 21,4 0 0 4 2 N 1016,2 20 0 0,0
20.09.2018 23:00:00 18,7 15,0 14,6 24,8 21,4 0 0 3 1 N 1016,0 20 0 0,0
20.09.2018 22:00:00 20,1 15,1 15,8 24,8 21,4 0 0 3 1 N 1015,9 20 0 0,0
20.09.2018 21:00:00 22,4 15,0 17,2 24,9 21,4 0 0 2 1 N 1015,4 20 0 0,0
20.09.2018 20:00:00 27,7 14,7 22,4 24,7 21,4 2 1 10 5 ZO 1015,0 20 36 0,0
20.09.2018 19:00:00 31,6 12,9 33,7 24,5 21,4 6 3 15 8 ZZO 1015,1 20 60 0,0
20.09.2018 18:00:00 32,8 12,9 37,3 24,2 21,4 5 3 15 8 OZO 1015,1 19 60 0,0
20.09.2018 17:00:00 32,8 12,9 36,4 23,8 21,4 6 3 18 10 ZZO 1015,5 20 60 0,0
20.09.2018 16:00:00 31,9 14,1 35,7 23,4 21,4 9 5 22 12 ZO 1016,1 20 60 0,0
20.09.2018 15:00:00 31,0 14,2 34,5 23,0 21,4 10 5 22 12 OZO 1017,1 17 60 0,0
20.09.2018 14:00:00 29,5 17,0 32,9 22,8 21,4 8 5 24 13 OZO 1018,1 19 60 0,0
20.09.2018 13:00:00 28,1 17,6 32,6 22,5 21,3 9 5 23 13 O 1018,9 20 60 0,0
20.09.2018 12:00:00 26,0 17,9 29,6 22,5 21,4 4 2 11 6 ZZO 1019,7 16 60 0,0
20.09.2018 11:00:00 23,0 17,5 25,7 22,6 21,4 3 2 10 5 Z 1020,4 20 60 0,0
20.09.2018 10:00:00 20,6 17,4 21,0 22,7 21,3 2 1 6 3 ZZO 1020,9 19 60 0,0
20.09.2018 09:00:00 17,2 16,7 13,3 22,9 21,4 0 0 5 3 N 1021,1 14 43 0,0
20.09.2018 08:00:00 15,9 15,4 13,4 23,1 21,4 3 1 9 5 ZZW 1021,1 11 0 0,2
20.09.2018 07:00:00 16,1 15,5 13,8 23,3 21,4 6 3 10 6 Z 1021,0 13 0 0,0
20.09.2018 06:00:00 16,6 15,8 14,3 23,5 21,4 6 4 11 6 Z 1021,1 17 0 0,0
20.09.2018 05:00:00 16,6 15,6 14,8 23,7 21,3 5 3 12 6 Z 1021,3 19 0 0,0

tt = temperatuur
td = dauwpunt
tt 5cm = temperatuur 5cm
tt -20cm = temperatuur -20cm
tt -100cm = temperatuur -100cm
ff = windsnelheid
fx = windstoten
dd = windrichting
ppp = luchtdruk
vv = zicht
sd = Zonneschijnduur
rr = neerslag

Weerstations in de omgeving